Location: ????????
(38.4362°N, 22.8767°E)
Time: 14:44:21
(UTC+00:00)

UNK - Visible Passes

Search period start: 12 July 2024 00:00
Search period end: 22 July 2024 00:00
Orbit: 659 x 680 km, 98.3° (Epoch: 12 July)

Date Brightness Start Highest point End Pass type
(mag) Time Alt. Az. Time Alt. Az. Time Alt. Az.
12 Jul 4.2 01:22:41 10° SSE 01:27:09 61° ENE 01:31:38 10° N visible
13 Jul 6.5 00:20:59 10° E 00:23:08 13° ENE 00:25:18 10° NE visible
13 Jul 3.7 01:55:13 10° S 01:59:41 58° W 02:04:10 10° NNW visible
14 Jul 5.6 00:51:33 10° SE 00:55:22 28° ENE 00:59:13 10° N visible
14 Jul 4.8 02:28:36 10° SSW 02:32:22 26° W 02:36:09 10° NW visible
15 Jul 4.2 01:23:18 10° SSE 01:27:46 61° ENE 01:32:15 10° N visible
16 Jul 6.5 00:21:34 10° E 00:23:44 13° ENE 00:25:55 10° NE visible
16 Jul 3.7 01:55:50 10° S 02:00:17 58° W 02:04:47 10° NNW visible
17 Jul 5.6 00:52:08 10° SE 00:55:58 28° ENE 00:59:50 10° N visible
17 Jul 4.8 02:29:13 10° SSW 02:32:58 25° W 02:36:44 10° NW visible
18 Jul 4.1 01:23:53 10° SSE 01:28:21 62° ENE 01:32:50 10° N visible
19 Jul 6.5 00:22:08 10° E 00:24:19 14° ENE 00:26:32 10° NE visible
19 Jul 3.7 01:56:30 10° S 02:00:52 57° W 02:05:22 10° NNW visible
20 Jul 5.6 00:52:42 10° SE 00:56:33 28° ENE 01:00:24 10° N visible
20 Jul 4.8 02:29:48 10° SSW 02:33:33 25° W 02:37:19 10° NW visible
21 Jul 4.1 01:24:28 10° SSE 01:28:55 62° ENE 01:33:25 10° N visible
